TimeEST,TemperatureF,Dew PointF,Humidity,Sea Level PressureIn,VisibilityMPH,Wind Direction,Wind SpeedMPH,Gust SpeedMPH,PrecipitationIn,Events,Conditions,WindDirDegrees,DateUTC
12:15 AM,15.8,8.6,73,30.27,10.0,Calm,Calm,-,N/A,,Clear,0,2013-02-02 05:15:00
12:38 AM,15.8,8.6,73,30.28,10.0,SW,3.5,-,N/A,,Clear,220,2013-02-02 05:38:00
12:55 AM,15.8,8.6,73,30.28,10.0,Calm,Calm,-,N/A,,Clear,0,2013-02-02 05:55:00
1:35 AM,15.8,10.4,79,30.27,10.0,Calm,Calm,-,N/A,,Clear,0,2013-02-02 06:35:00
1:55 AM,12.2,10.4,92,30.26,10.0,Calm,Calm,-,N/A,,Clear,0,2013-02-02 06:55:00
2:38 AM,12.2,10.4,92,30.25,10.0,Calm,Calm,-,N/A,,Clear,0,2013-02-02 07:38:00
2:55 AM,12.2,10.4,92,30.25,10.0,Calm,Calm,-,N/A,,Clear,0,2013-02-02 07:55:00
3:17 AM,12.2,10.4,92,30.25,10.0,Calm,Calm,-,N/A,,Clear,0,2013-02-02 08:17:00
3:55 AM,12.2,10.4,92,30.26,10.0,Calm,Calm,-,N/A,,Clear,0,2013-02-02 08:55:00
4:15 AM,12.2,10.4,92,30.26,10.0,Calm,Calm,-,N/A,,Clear,0,2013-02-02 09:15:00
4:35 AM,12.2,12.2,100,30.25,10.0,Calm,Calm,-,N/A,,Clear,0,2013-02-02 09:35:00
4:57 AM,12.2,12.2,100,30.24,10.0,Calm,Calm,-,N/A,,Clear,0,2013-02-02 09:57:00
5:17 AM,10.4,10.4,100,30.24,10.0,Calm,Calm,-,N/A,,Clear,0,2013-02-02 10:17:00
5:55 AM,12.2,10.4,92,30.24,10.0,Calm,Calm,-,N/A,,Clear,0,2013-02-02 10:55:00
6:15 AM,12.2,10.4,92,30.24,10.0,Calm,Calm,-,N/A,,Clear,0,2013-02-02 11:15:00
6:35 AM,12.2,10.4,92,30.24,10.0,Calm,Calm,-,N/A,,Clear,0,2013-02-02 11:35:00
6:58 AM,12.2,10.4,92,30.24,10.0,Calm,Calm,-,N/A,,Clear,0,2013-02-02 11:58:00
7:18 AM,12.2,12.2,100,30.24,10.0,Calm,Calm,-,N/A,,Clear,0,2013-02-02 12:18:00
7:37 AM,12.2,12.2,100,30.25,10.0,Calm,Calm,-,N/A,,Clear,0,2013-02-02 12:37:00
7:55 AM,15.8,14.0,93,30.25,10.0,Calm,Calm,-,N/A,,Scattered Clouds,0,2013-02-02 12:55:00
8:15 AM,17.6,14.0,86,30.25,10.0,Calm,Calm,-,N/A,,Clear,0,2013-02-02 13:15:00
8:38 AM,17.6,14.0,86,30.24,10.0,Calm,Calm,-,N/A,,Clear,0,2013-02-02 13:38:00
8:55 AM,21.2,15.8,80,30.24,10.0,SW,3.5,-,N/A,,Scattered Clouds,220,2013-02-02 13:55:00
9:18 AM,21.2,15.8,80,30.24,10.0,Calm,Calm,-,N/A,,Scattered Clouds,0,2013-02-02 14:18:00
9:37 AM,23.0,15.8,74,30.23,10.0,Calm,Calm,-,N/A,,Scattered Clouds,0,2013-02-02 14:37:00
9:55 AM,23.0,15.8,74,30.23,10.0,Calm,Calm,-,N/A,,Clear,0,2013-02-02 14:55:00
10:18 AM,26.6,17.6,69,30.21,10.0,Calm,Calm,-,N/A,,Mostly Cloudy,0,2013-02-02 15:18:00
10:35 AM,26.6,15.8,64,30.20,10.0,SSW,3.5,-,N/A,,Overcast,200,2013-02-02 15:35:00
10:55 AM,28.4,17.6,64,30.19,10.0,Calm,Calm,-,N/A,,Overcast,0,2013-02-02 15:55:00
11:15 AM,28.4,17.6,64,30.17,10.0,Calm,Calm,-,N/A,,Scattered Clouds,0,2013-02-02 16:15:00
11:37 AM,30.2,17.6,60,30.15,10.0,Calm,Calm,-,N/A,,Mostly Cloudy,0,2013-02-02 16:37:00
12:15 PM,32.0,17.6,55,30.14,10.0,Calm,Calm,-,N/A,,Overcast,0,2013-02-02 17:15:00
12:35 PM,33.8,17.6,52,30.12,10.0,SW,5.8,-,N/A,,Overcast,230,2013-02-02 17:35:00
12:56 PM,33.8,19.4,56,30.11,10.0,West,6.9,-,N/A,,Overcast,260,2013-02-02 17:56:00
1:18 PM,33.8,19.4,56,30.10,10.0,SW,4.6,-,N/A,,Overcast,220,2013-02-02 18:18:00
1:35 PM,33.8,19.4,56,30.09,10.0,West,8.1,-,N/A,,Overcast,260,2013-02-02 18:35:00
1:55 PM,33.8,21.2,60,30.08,10.0,West,5.8,-,N/A,,Overcast,280,2013-02-02 18:55:00
2:35 PM,33.8,21.2,60,30.05,10.0,Calm,Calm,-,N/A,,Overcast,0,2013-02-02 19:35:00
2:58 PM,33.8,21.2,60,30.04,10.0,WSW,3.5,-,N/A,,Overcast,250,2013-02-02 19:58:00
3:17 PM,33.8,24.8,70,30.04,7.0,South,3.5,-,N/A,Snow,Light Snow,190,2013-02-02 20:17:00
3:37 PM,33.8,24.8,70,30.03,10.0,SSE,4.6,-,N/A,,Overcast,160,2013-02-02 20:37:00
3:55 PM,33.8,23.0,65,30.03,10.0,SW,3.5,-,N/A,,Overcast,220,2013-02-02 20:55:00
4:17 PM,33.8,23.0,65,30.02,-9999.0,Calm,Calm,-,N/A,,Overcast,0,2013-02-02 21:17:00
4:35 PM,30.2,28.4,93,30.02,10.0,WNW,4.6,-,N/A,,Overcast,300,2013-02-02 21:35:00
4:57 PM,30.2,28.4,93,30.02,1.0,WNW,4.6,-,N/A,Snow,Light Snow,300,2013-02-02 21:57:00
5:17 PM,30.2,30.2,100,30.02,0.8,Calm,Calm,-,N/A,Snow,Light Snow,0,2013-02-02 22:17:00
5:58 PM,28.4,28.4,100,30.02,0.8,SSW,5.8,-,N/A,Snow,Light Snow,200,2013-02-02 22:58:00
6:38 PM,28.4,28.4,100,30.02,1.2,SSW,3.5,-,N/A,Snow,Light Snow,210,2013-02-02 23:38:00
6:55 PM,28.4,28.4,100,30.02,1.2,Calm,Calm,-,N/A,Snow,Snow,0,2013-02-02 23:55:00
7:17 PM,28.4,28.4,100,30.00,1.5,Calm,Calm,-,N/A,Snow,Light Snow,0,2013-02-03 00:17:00
7:56 PM,28.4,28.4,100,30.00,4.0,Calm,Calm,-,N/A,Snow,Light Snow,0,2013-02-03 00:56:00
8:16 PM,28.4,28.4,100,30.00,4.0,Calm,Calm,-,N/A,Snow,Light Snow,0,2013-02-03 01:16:00
8:37 PM,28.4,28.4,100,30.00,4.0,Calm,Calm,-,N/A,Snow,Light Snow,0,2013-02-03 01:37:00
8:55 PM,28.4,28.4,100,30.00,3.0,WSW,3.5,-,N/A,Snow,Light Snow,240,2013-02-03 01:55:00
9:18 PM,28.4,28.4,100,30.00,2.5,SW,4.6,-,N/A,Snow,Light Snow,230,2013-02-03 02:18:00
9:58 PM,30.2,30.2,100,30.00,3.0,WSW,3.5,-,N/A,Snow,Light Snow,250,2013-02-03 02:58:00
10:16 PM,30.2,30.2,100,30.00,2.5,Calm,Calm,-,N/A,Snow,Light Snow,0,2013-02-03 03:16:00
10:35 PM,30.2,30.2,100,29.99,2.0,West,3.5,-,N/A,Snow,Light Snow,260,2013-02-03 03:35:00
11:17 PM,28.4,28.4,100,29.97,7.0,Calm,Calm,-,N/A,Snow,Light Snow,0,2013-02-03 04:17:00
11:38 PM,28.4,28.4,100,29.97,5.0,Calm,Calm,-,N/A,Snow,Light Snow,0,2013-02-03 04:38:00
11:55 PM,28.4,28.4,100,29.97,7.0,West,3.5,-,N/A,Snow,Light Snow,260,2013-02-03 04:55:00